Regional Weather Roundup
Issued by NWS

Home | Current Version | Previous Version | Graphics & Text | Print | Product List | Glossary On
Versions: 1 2 3 4 5 6 7 8 9 10 11 12 13 14 15 16 17 18 19 20 21 22 23 24 25 26 27 28 29 30 31 32 33 34 35 36 37 38 39 40 41 42 43 44 45 46 47 48 49 50
000
ASUS43 KLSX 171607
RWRMO

WEATHER SUMMARY FOR MISSOURI
NATIONAL WEATHER SERVICE SPRINGFIELD MO
1100 AM CDT TUE OCT 17 2017

NOTE: "FAIR" INDICATES FEW OR NO CLOUDS BELOW 12,000 FEET WITH NO
       SIGNIFICANT WEATHER AND/OR OBSTRUCTIONS TO VISIBILITY.
       CURRENT SKY AND/OR WEATHER CONDITIONS ARE NOT AVAILABLE FOR
       CHILLICOTHE AND FARMINGTON.

MOZ001>031-035>038-043-044-053-054-171700-
...NORTHERN AND WESTERN MISSOURI...

CITY           SKY/WX    TMP DP  RH WIND       PRES   REMARKS
KANSAS CTY INT SUNNY     63  44  50 SW15      30.20F
KANSAS C DTWN  SUNNY     64  44  48 S15       30.21F
LEE`S SUMMIT   SUNNY     62  43  49 SW16G23   30.23F
ST JOSEPH      SUNNY     65  43  44 S17G28    30.17F
CHILLICOTHE      N/A     62  44  51 S14       30.22F
KIRKSVILLE     SUNNY     62  44  51 SW15G22   30.24F

$$
MOZ066>068-077>081-088>096-101>105-171700-
...SOUTHWEST MISSOURI...

CITY           SKY/WX    TMP DP  RH WIND       PRES   REMARKS
SPRINGFIELD    SUNNY     60  43  53 S14       30.31S
JOPLIN         SUNNY     63  44  50 S16       30.30S
BRANSON        PTSUNNY   59  39  47 SE6       30.35S

$$
MOZ032>034-039>042-045>050-055>058-069>072-171700-
...CENTRAL MISSOURI...

CITY           SKY/WX    TMP DP  RH WIND       PRES   REMARKS
COLUMBIA       SUNNY     60  45  57 S14       30.29S
JEFFERSON CITY MOSUNNY   59  42  53 S3        30.30F
ROLLA          MOSUNNY   57  41  55 S12       30.32F
SEDALIA        SUNNY     63  46  54 SW13      30.27F
WHITEMAN AFB   MOSUNNY   62  46  56 SW13      30.21F
WARRENSBURG    SUNNY     61  43  51 S9        30.25F
OSAGE BEACH    MOSUNNY   58  44  60 S6        30.31F

$$
MOZ051-052-059>065-171700-
...EAST CENTRAL MISSOURI...

CITY           SKY/WX    TMP DP  RH WIND       PRES   REMARKS
ST LOUIS INTL  PTSUNNY   62  41  46 S12       30.33F
SPIRIT OF STL  PTSUNNY   62  42  47 SW10      30.32F
ST CHARLES     MOSUNNY   61  40  45 S8        30.32F

$$
MOZ072>076-082>087-097>100-106>115-171700-
...SOUTH CENTRAL AND SOUTHEAST MISSOURI...

CITY           SKY/WX    TMP DP  RH WIND       PRES   REMARKS
CAPE GIRARDEAU PTSUNNY   60  41  49 S8        30.37F
FARMINGTON     SUNNY     60  40  47 SW12      30.36S
POPLAR BLUFF   SUNNY     61  42  49 SE7       30.37F
WEST PLAINS    SUNNY     60  37  42 S8        30.36F

$$



USA.gov is the U.S. government's official web portal to all federal, state and local government web resources and services.